Location: Newark
(52.2128°N, 21.0240°E)
Time: 18:46:03
(UTC+00:00)

ISS - Visible Passes

Search period start: 22 September 2020 00:00
Search period end: 02 October 2020 00:00
Orbit: 419 x 420 km, 51.6° (Epoch: 23 September)

Date Brightness Start Highest point End Pass type
(mag) Time Alt. Az. Time Alt. Az. Time Alt. Az.
22 Sep -3.7 18:08:37 10° WSW 18:11:58 60° SSE 18:12:59 38° ESE visible
22 Sep -0.8 19:45:20 10° W 19:45:57 15° W 19:45:57 15° W visible
23 Sep -3.4 17:21:21 10° SW 17:24:37 48° SSE 17:27:27 13° E visible
23 Sep -2.8 18:57:57 10° W 19:00:25 46° W 19:00:25 46° W visible
24 Sep -3.9 18:10:33 10° W 18:13:56 80° S 18:14:50 46° E visible
24 Sep -0.7 19:47:20 10° W 19:47:47 13° W 19:47:47 13° W visible
25 Sep -3.7 17:23:09 10° WSW 17:26:32 72° S 17:29:12 15° E visible
25 Sep -2.4 18:59:56 10° W 19:02:09 38° W 19:02:09 38° W visible
26 Sep -3.8 18:12:31 10° W 18:15:53 82° S 18:16:30 57° ESE visible
26 Sep -0.4 19:49:21 10° W 19:49:27 11° W 19:49:27 11° W visible
27 Sep -3.8 17:25:05 10° W 17:28:27 83° S 17:30:49 18° E visible
27 Sep -1.9 19:01:53 10° W 19:03:46 29° W 19:03:46 29° W visible
28 Sep -3.7 18:14:26 10° W 18:17:47 65° SSW 18:18:06 60° SSE visible
29 Sep -3.7 17:26:59 10° W 17:30:21 75° S 17:32:25 22° ESE visible
29 Sep -1.4 19:03:54 10° W 19:05:23 21° WSW 19:05:23 21° WSW visible
30 Sep -3.0 18:16:22 10° W 18:19:33 40° SSW 18:19:43 40° SSW visible
01 Oct -3.2 17:28:51 10° W 17:32:09 52° SSW 17:34:05 22° SE visible
01 Oct -0.9 19:06:17 10° WSW 19:07:03 13° WSW 19:07:03 13° WSW visible
